Weather History for KFMN - March, 2014

Change the Weather History Date:

Monday, March 31, 2014

  Actual Average Record
Temperature  
Mean Temperature 44 °F -  
Max Temperature 57 °F 59 °F 79 °F (2012)
Min Temperature 30 °F 31 °F 19 °F (1980)
Degree Days  
Heating Degree Days 22    
Moisture  
Dew Point 12 °F    
Average Humidity 27    
Maximum Humidity 57    
Minimum Humidity 4    
Precipitation  
Precipitation 0.00 in - - ()
Sea Level Pressure  
Sea Level Pressure 29.94 in    
Wind  
Wind Speed 6 mph (WNW)    
Max Wind Speed 13 mph    
Max Gust Speed 16 mph    
Visibility 10 miles    
Events      
Averages and records for this station are not official NWS values.
T = Trace of Precipitation, MM = Missing Value Source: NWS Daily Summary

Daily Weather History Graph

Daily Weather History Graph

Search for Another Location

Airport or City:

Trip Planner

Search our weather history database for the weather conditions in past years. The results will help you decide how hot, cold, wet, or windy it might be!

Date:

Astronomy

Mar. 31, 2014 Rise Set
Actual Time 7:00 AM MDT 7:34 PM MDT
Civil Twilight 6:34 AM MDT 8:00 PM MDT
Nautical Twilight 6:03 AM MDT 8:31 PM MDT
Astronomical Twilight 5:32 AM MDT 9:02 PM MDT
Moon 7:27 AM MDT (3/31) 8:54 PM MDT (3/31)
Length of Visible Light 13h 26m
Length of Day
12h 34m
New Moon, 1% of the Moon is Illuminated
Mar 31
New Moon
Apr 7
First Quarter
Apr 15
Full
Apr 22
Last Quarter
Apr 29
New

Hourly Weather History & Observations

Time (MDT) Temp. Windchill Dew Point Humidity Pressure Visibility Wind Dir Wind Speed Gust Speed Precip Events Conditions
12:53 AM 41.0 °F 35.2 °F 15.1 °F 35% 29.92 in 10.0 mi WNW 9.2 mph - N/A   Clear
1:53 AM 37.9 °F 30.5 °F 15.1 °F 39% 29.92 in 10.0 mi West 11.5 mph - N/A   Clear
2:53 AM 37.9 °F 31.5 °F 16.0 °F 41% 29.92 in 10.0 mi West 9.2 mph - N/A   Clear
3:53 AM 37.9 °F 30.0 °F 18.0 °F 45% 29.92 in 10.0 mi WNW 12.7 mph - N/A   Clear
4:53 AM 35.1 °F 32.2 °F 19.0 °F 52% 29.94 in 10.0 mi NNE 3.5 mph - N/A   Clear
5:53 AM 33.1 °F 30.0 °F 19.0 °F 56% 29.96 in 10.0 mi West 3.5 mph - N/A   Clear
6:53 AM 35.1 °F 32.2 °F 19.9 °F 54% 29.98 in 10.0 mi SW 3.5 mph - N/A   Clear
7:53 AM 35.1 °F 30.1 °F 21.0 °F 57% 30.03 in 10.0 mi West 5.8 mph - N/A   Clear
8:53 AM 39.9 °F - 19.9 °F 45% 30.02 in 10.0 mi Calm Calm - N/A   Clear
9:53 AM 44.1 °F - 14.0 °F 30% 30.04 in 10.0 mi Calm Calm - N/A   Partly Cloudy
10:53 AM 46.9 °F - 12.0 °F 24% 30.04 in 10.0 mi West 9.2 mph - N/A   Clear
11:53 AM 48.9 °F - 12.0 °F 23% 30.04 in 10.0 mi Calm Calm - N/A   Clear
12:53 PM 53.1 °F - 8.1 °F 16% 30.00 in 10.0 mi West 8.1 mph - N/A   Clear
1:53 PM 53.1 °F - 6.1 °F 15% 29.99 in 10.0 mi Variable 4.6 mph 16.1 mph N/A   Clear
2:53 PM 55.9 °F - 1.9 °F 11% 29.94 in 10.0 mi Variable 5.8 mph - N/A   Clear
3:53 PM 57.0 °F - 5.0 °F 12% 29.92 in 10.0 mi North - - N/A   Clear
4:53 PM 57.9 °F - 6.1 °F 13% 29.90 in 10.0 mi NW 5.8 mph - N/A   Clear
5:53 PM 57.0 °F - 7.0 °F 14% 29.89 in 10.0 mi Variable 3.5 mph - N/A   Clear
6:53 PM 55.9 °F - 8.1 °F 15% 29.87 in 10.0 mi East 4.6 mph - N/A   Clear
7:53 PM 50.0 °F - 8.1 °F 18% 29.87 in 10.0 mi East 5.8 mph - N/A   Clear
8:53 PM 46.9 °F - 8.1 °F 21% 29.87 in 10.0 mi East 8.1 mph - N/A   Clear
9:53 PM 44.1 °F 40.8 °F 9.0 °F 24% 29.88 in 10.0 mi East 5.8 mph - N/A   Clear
10:53 PM 43.0 °F 39.5 °F 9.0 °F 25% 29.88 in 10.0 mi East 5.8 mph - N/A   Clear
11:53 PM 46.0 °F 43.9 °F 8.1 °F 21% 29.85 in 10.0 mi Variable 4.6 mph - N/A   Clear